Year,Month,Day,Hour,Minute,Value (Times are PST for temperature in C)
2014,10,23,00,00,10.70
2014,10,23,00,01,10.70
2014,10,23,00,02,10.70
2014,10,23,00,03,10.80
2014,10,23,00,04,10.80
2014,10,23,00,05,10.80
2014,10,23,00,06,10.80
2014,10,23,00,07,10.80
2014,10,23,00,08,10.80
2014,10,23,00,09,10.80
2014,10,23,00,10,10.70
2014,10,23,00,11,10.70
2014,10,23,00,12,10.70
2014,10,23,00,13,10.70
2014,10,23,00,14,10.70
2014,10,23,00,15,10.70
2014,10,23,00,16,10.80
2014,10,23,00,17,10.80
2014,10,23,00,18,10.80
2014,10,23,00,19,10.80
2014,10,23,00,20,10.70
2014,10,23,00,21,10.70
2014,10,23,00,22,10.70
2014,10,23,00,23,10.70
2014,10,23,00,24,10.70
2014,10,23,00,25,10.70
2014,10,23,00,26,10.70
2014,10,23,00,27,10.70
2014,10,23,00,28,10.70
2014,10,23,00,29,10.70
2014,10,23,00,30,10.80
2014,10,23,00,31,10.80
2014,10,23,00,32,10.80
2014,10,23,00,33,10.80
2014,10,23,00,34,10.80
2014,10,23,00,35,10.80
2014,10,23,00,36,10.80
2014,10,23,00,37,10.80
2014,10,23,00,38,10.80
2014,10,23,00,39,10.80
2014,10,23,00,40,10.80
2014,10,23,00,41,10.80
2014,10,23,00,42,10.80
2014,10,23,00,43,10.80
2014,10,23,00,44,10.80
2014,10,23,00,45,10.80
2014,10,23,00,46,10.80
2014,10,23,00,47,10.80
2014,10,23,00,48,10.80
2014,10,23,00,49,10.80
2014,10,23,00,50,10.80
2014,10,23,00,51,10.80
2014,10,23,00,52,10.80
2014,10,23,00,53,10.80
2014,10,23,00,54,10.80
2014,10,23,00,55,10.80
2014,10,23,00,56,10.80
2014,10,23,00,57,10.80
2014,10,23,00,58,10.80
2014,10,23,00,59,10.80
2014,10,23,01,00,10.80
2014,10,23,01,01,10.80
2014,10,23,01,02,10.80
2014,10,23,01,03,10.80
2014,10,23,01,04,10.70
2014,10,23,01,05,10.70
2014,10,23,01,06,10.70
2014,10,23,01,07,10.70
2014,10,23,01,08,10.70
2014,10,23,01,09,10.70
2014,10,23,01,10,10.70
2014,10,23,01,11,10.70
2014,10,23,01,12,10.70
2014,10,23,01,13,10.70
2014,10,23,01,14,10.60
2014,10,23,01,15,10.60
2014,10,23,01,16,10.60
2014,10,23,01,17,10.60
2014,10,23,01,18,10.60
2014,10,23,01,19,10.60
2014,10,23,01,20,10.60
2014,10,23,01,21,10.60
2014,10,23,01,22,10.60
2014,10,23,01,23,10.60
2014,10,23,01,24,10.60
2014,10,23,01,25,10.60
2014,10,23,01,26,10.60
2014,10,23,01,27,10.50
2014,10,23,01,28,10.50
2014,10,23,01,29,10.50
2014,10,23,01,30,10.40
2014,10,23,01,31,10.40
2014,10,23,01,32,10.40
2014,10,23,01,33,10.40
2014,10,23,01,34,10.40
2014,10,23,01,35,10.40
2014,10,23,01,36,10.30
2014,10,23,01,37,10.30
2014,10,23,01,38,10.30
2014,10,23,01,39,10.30
2014,10,23,01,40,10.30
2014,10,23,01,41,10.30
2014,10,23,01,42,10.30
2014,10,23,01,43,10.20
2014,10,23,01,44,10.20
2014,10,23,01,45,10.20
2014,10,23,01,46,10.20
2014,10,23,01,47,10.20
2014,10,23,01,48,10.10
2014,10,23,01,49,10.10
2014,10,23,01,50,10.10
2014,10,23,01,51,10.00
2014,10,23,01,52,10.00
2014,10,23,01,53,10.00
2014,10,23,01,54,9.90
2014,10,23,01,55,9.90
2014,10,23,01,56,9.90
2014,10,23,01,57,9.90
2014,10,23,01,58,9.90
2014,10,23,01,59,9.90
2014,10,23,02,00,9.80
2014,10,23,02,01,9.80
2014,10,23,02,02,9.80
2014,10,23,02,03,9.80
2014,10,23,02,04,9.70
2014,10,23,02,05,9.70
2014,10,23,02,06,9.70
2014,10,23,02,07,9.60
2014,10,23,02,08,9.60
2014,10,23,02,09,9.60
2014,10,23,02,10,9.60
2014,10,23,02,11,9.50
2014,10,23,02,12,9.40
2014,10,23,02,13,9.40
2014,10,23,02,14,9.40
2014,10,23,02,15,9.30
2014,10,23,02,16,9.30
2014,10,23,02,17,9.30
2014,10,23,02,18,9.30
2014,10,23,02,19,9.30
2014,10,23,02,20,9.20
2014,10,23,02,21,9.20
2014,10,23,02,22,9.20
2014,10,23,02,23,9.10
2014,10,23,02,24,9.10
2014,10,23,02,25,9.00
2014,10,23,02,26,9.00
2014,10,23,02,27,9.00
2014,10,23,02,28,9.00
2014,10,23,02,29,8.90
2014,10,23,02,30,8.90
2014,10,23,02,31,8.90
2014,10,23,02,32,8.80
2014,10,23,02,33,8.80
2014,10,23,02,34,8.80
2014,10,23,02,35,8.80
2014,10,23,02,36,8.80
2014,10,23,02,37,8.70
2014,10,23,02,38,8.70
2014,10,23,02,39,8.70
2014,10,23,02,40,8.60
2014,10,23,02,41,8.60
2014,10,23,02,42,8.60
2014,10,23,02,43,8.60
2014,10,23,02,44,8.60
2014,10,23,02,45,8.60
2014,10,23,02,46,8.50
2014,10,23,02,47,8.50
2014,10,23,02,48,8.50
2014,10,23,02,49,8.50
2014,10,23,02,50,8.50
2014,10,23,02,51,8.40
2014,10,23,02,52,8.40
2014,10,23,02,53,8.40
2014,10,23,02,54,8.40
2014,10,23,02,55,8.40
2014,10,23,02,56,8.40
2014,10,23,02,57,8.40
2014,10,23,02,58,8.40
2014,10,23,02,59,8.30
2014,10,23,03,00,8.30
2014,10,23,03,01,8.30
2014,10,23,03,02,8.30
2014,10,23,03,03,8.20
2014,10,23,03,04,8.20
2014,10,23,03,05,8.20
2014,10,23,03,06,8.20
2014,10,23,03,07,8.20
2014,10,23,03,08,8.20
2014,10,23,03,09,8.20
2014,10,23,03,10,8.20
2014,10,23,03,11,8.20
2014,10,23,03,12,8.20
2014,10,23,03,13,8.20
2014,10,23,03,14,8.20
2014,10,23,03,15,8.20
2014,10,23,03,16,8.20
2014,10,23,03,17,8.20
2014,10,23,03,18,8.20
2014,10,23,03,19,8.20
2014,10,23,03,20,8.20
2014,10,23,03,21,8.20
2014,10,23,03,22,8.20
2014,10,23,03,23,8.20
2014,10,23,03,24,8.30
2014,10,23,03,25,8.30
2014,10,23,03,26,8.30
2014,10,23,03,27,8.30
2014,10,23,03,28,8.30
2014,10,23,03,29,8.30
2014,10,23,03,30,8.30
2014,10,23,03,31,8.30
2014,10,23,03,32,8.30
2014,10,23,03,33,8.30
2014,10,23,03,34,8.20
2014,10,23,03,35,8.20
2014,10,23,03,36,8.20
2014,10,23,03,37,8.20
2014,10,23,03,38,8.20
2014,10,23,03,39,8.20
2014,10,23,03,40,8.20
2014,10,23,03,41,8.20
2014,10,23,03,42,8.20
2014,10,23,03,43,8.20
2014,10,23,03,44,8.20
2014,10,23,03,45,8.20
2014,10,23,03,46,8.20
2014,10,23,03,47,8.10
2014,10,23,03,48,8.10
2014,10,23,03,49,8.10
2014,10,23,03,50,8.10
2014,10,23,03,51,8.10
2014,10,23,03,52,8.10
2014,10,23,03,53,8.10
2014,10,23,03,54,8.10
2014,10,23,03,55,8.10
2014,10,23,03,56,8.10
2014,10,23,03,57,8.10
2014,10,23,03,58,8.10
2014,10,23,03,59,8.10
2014,10,23,04,00,8.10
2014,10,23,04,01,8.10
2014,10,23,04,02,8.10
2014,10,23,04,03,8.10
2014,10,23,04,04,8.10
2014,10,23,04,05,8.10
2014,10,23,04,06,8.10
2014,10,23,04,07,8.10
2014,10,23,04,08,8.10
2014,10,23,04,09,8.10
2014,10,23,04,10,8.10
2014,10,23,04,11,8.10
2014,10,23,04,12,8.10
2014,10,23,04,13,8.10
2014,10,23,04,14,8.10
2014,10,23,04,15,8.10
2014,10,23,04,16,8.10
2014,10,23,04,17,8.10
2014,10,23,04,18,8.10
2014,10,23,04,19,8.10
2014,10,23,04,20,8.20
2014,10,23,04,21,8.20
2014,10,23,04,22,8.20
2014,10,23,04,23,8.20
2014,10,23,04,24,8.20
2014,10,23,04,25,8.20
2014,10,23,04,26,8.30
2014,10,23,04,27,8.30
2014,10,23,04,28,8.30
2014,10,23,04,29,8.30
2014,10,23,04,30,8.30
2014,10,23,04,31,8.30
2014,10,23,04,32,8.40
2014,10,23,04,33,8.40
2014,10,23,04,34,8.40
2014,10,23,04,35,8.40
2014,10,23,04,36,8.40
2014,10,23,04,37,8.40
2014,10,23,04,38,8.50
2014,10,23,04,39,8.50
2014,10,23,04,40,8.50
2014,10,23,04,41,8.60
2014,10,23,04,42,8.60
2014,10,23,04,43,8.60
2014,10,23,04,44,8.60
2014,10,23,04,45,8.60
2014,10,23,04,46,8.70
2014,10,23,04,47,8.70
2014,10,23,04,48,8.70
2014,10,23,04,49,8.70
2014,10,23,04,50,8.70
2014,10,23,04,51,8.70
2014,10,23,04,52,8.80
2014,10,23,04,53,8.80
2014,10,23,04,54,8.70
2014,10,23,04,55,8.70
2014,10,23,04,56,8.80
2014,10,23,04,57,8.80
2014,10,23,04,58,8.80
2014,10,23,04,59,8.80
2014,10,23,05,00,8.80
2014,10,23,05,01,8.80
2014,10,23,05,02,8.80
2014,10,23,05,03,8.80
2014,10,23,05,04,8.80
2014,10,23,05,05,8.80
2014,10,23,05,06,8.80
2014,10,23,05,07,8.80
2014,10,23,05,08,8.80
2014,10,23,05,09,8.80
2014,10,23,05,10,8.80
2014,10,23,05,11,8.80
2014,10,23,05,12,8.90
2014,10,23,05,13,8.90
2014,10,23,05,14,8.90
2014,10,23,05,15,8.90
2014,10,23,05,16,8.90
2014,10,23,05,17,8.90
2014,10,23,05,18,8.90
2014,10,23,05,19,8.90
2014,10,23,05,20,8.90
2014,10,23,05,21,8.90
2014,10,23,05,22,8.90
2014,10,23,05,23,8.90
2014,10,23,05,24,8.90
2014,10,23,05,25,8.90
2014,10,23,05,26,8.90
2014,10,23,05,27,8.90
2014,10,23,05,28,9.00
2014,10,23,05,29,9.00
2014,10,23,05,30,9.00
2014,10,23,05,31,9.00
2014,10,23,05,32,9.00
2014,10,23,05,33,9.10
2014,10,23,05,34,9.10
2014,10,23,05,35,9.10
2014,10,23,05,36,9.10
2014,10,23,05,37,9.10
2014,10,23,05,38,9.10
2014,10,23,05,39,9.10
2014,10,23,05,40,9.10
2014,10,23,05,41,9.10
2014,10,23,05,42,9.10
2014,10,23,05,43,9.10
2014,10,23,05,44,9.10
2014,10,23,05,45,9.10
2014,10,23,05,46,9.10
2014,10,23,05,47,9.10
2014,10,23,05,48,9.10
2014,10,23,05,49,9.10
2014,10,23,05,50,9.10
2014,10,23,05,51,9.10
2014,10,23,05,52,9.10
2014,10,23,05,53,9.10
2014,10,23,05,54,9.10
2014,10,23,05,55,9.10
2014,10,23,05,56,9.10
2014,10,23,05,57,9.10
2014,10,23,05,58,9.10
2014,10,23,05,59,9.10
2014,10,23,06,00,9.10
2014,10,23,06,01,9.10
2014,10,23,06,02,9.10
2014,10,23,06,03,9.10
2014,10,23,06,04,9.20
2014,10,23,06,05,9.20
2014,10,23,06,06,9.20
2014,10,23,06,07,9.20
2014,10,23,06,08,9.20
2014,10,23,06,09,9.20
2014,10,23,06,10,9.20
2014,10,23,06,11,9.20
2014,10,23,06,12,9.20
2014,10,23,06,13,9.30
2014,10,23,06,14,9.30
2014,10,23,06,15,9.30
2014,10,23,06,16,9.30
2014,10,23,06,17,9.30
2014,10,23,06,18,9.30
2014,10,23,06,19,9.30
2014,10,23,06,20,9.30
2014,10,23,06,21,9.30
2014,10,23,06,22,9.30
2014,10,23,06,23,9.30
2014,10,23,06,24,9.30
2014,10,23,06,25,9.30
2014,10,23,06,26,9.30
2014,10,23,06,27,9.30
2014,10,23,06,28,9.30
2014,10,23,06,29,9.30
2014,10,23,06,30,9.30
2014,10,23,06,31,9.30
2014,10,23,06,32,9.40
2014,10,23,06,33,9.40
2014,10,23,06,34,9.40
2014,10,23,06,35,9.40
2014,10,23,06,36,9.40
2014,10,23,06,37,9.40
2014,10,23,06,38,9.50
2014,10,23,06,39,9.50
2014,10,23,06,40,9.50
2014,10,23,06,41,9.60
2014,10,23,06,42,9.60
2014,10,23,06,43,9.60
2014,10,23,06,44,9.60
2014,10,23,06,45,9.60
2014,10,23,06,46,9.60
2014,10,23,06,47,9.60
2014,10,23,06,48,9.60
2014,10,23,06,49,9.60
2014,10,23,06,50,9.60
2014,10,23,06,51,9.70
2014,10,23,06,52,9.70
2014,10,23,06,53,9.70
2014,10,23,06,54,9.70
2014,10,23,06,55,9.70
2014,10,23,06,56,9.70
2014,10,23,06,57,9.70
2014,10,23,06,58,9.70
2014,10,23,06,59,9.70
2014,10,23,07,00,9.70
2014,10,23,07,01,9.70
2014,10,23,07,02,9.70
2014,10,23,07,03,9.70
2014,10,23,07,04,9.70
2014,10,23,07,05,9.70
2014,10,23,07,06,9.70
2014,10,23,07,07,9.70
2014,10,23,07,08,9.70
2014,10,23,07,09,9.70
2014,10,23,07,10,9.70
2014,10,23,07,11,9.70
2014,10,23,07,12,9.70
2014,10,23,07,13,9.70
2014,10,23,07,14,9.70
2014,10,23,07,15,9.70
2014,10,23,07,16,9.70
2014,10,23,07,17,9.70
2014,10,23,07,18,9.70
2014,10,23,07,19,9.70
2014,10,23,07,20,9.70
2014,10,23,07,21,9.70
2014,10,23,07,22,9.70
2014,10,23,07,23,9.70
2014,10,23,07,24,9.70
2014,10,23,07,25,9.70
2014,10,23,07,26,9.70
2014,10,23,07,27,9.70
2014,10,23,07,28,9.70
2014,10,23,07,29,9.70
2014,10,23,07,30,9.70
2014,10,23,07,31,9.70
2014,10,23,07,32,9.70
2014,10,23,07,33,9.70
2014,10,23,07,34,9.70
2014,10,23,07,35,9.70
2014,10,23,07,36,9.70
2014,10,23,07,37,9.70
2014,10,23,07,38,9.70
2014,10,23,07,39,9.70
2014,10,23,07,40,9.80
2014,10,23,07,41,9.80
2014,10,23,07,42,9.80
2014,10,23,07,43,9.70
2014,10,23,07,44,9.70
2014,10,23,07,45,9.70
2014,10,23,07,46,9.70
2014,10,23,07,47,9.70
2014,10,23,07,48,9.70
2014,10,23,07,49,9.70
2014,10,23,07,50,9.70
2014,10,23,07,51,9.70
2014,10,23,07,52,9.70
2014,10,23,07,53,9.70
2014,10,23,07,54,9.70
2014,10,23,07,55,9.70
2014,10,23,07,56,9.70
2014,10,23,07,57,9.70
2014,10,23,07,58,9.70
2014,10,23,07,59,9.70
2014,10,23,08,00,9.70
2014,10,23,08,01,9.70
2014,10,23,08,02,9.70
2014,10,23,08,03,9.70
2014,10,23,08,04,9.70
2014,10,23,08,05,9.70
2014,10,23,08,06,9.70
2014,10,23,08,07,9.70
2014,10,23,08,08,9.70
2014,10,23,08,09,9.70
2014,10,23,08,10,9.70
2014,10,23,08,11,9.70
2014,10,23,08,12,9.70
2014,10,23,08,13,9.70
2014,10,23,08,14,9.70
2014,10,23,08,15,9.70
2014,10,23,08,16,9.70
2014,10,23,08,17,9.70
2014,10,23,08,18,9.70
2014,10,23,08,19,9.70
2014,10,23,08,20,9.70
2014,10,23,08,21,9.80
2014,10,23,08,22,9.80
2014,10,23,08,23,9.80
2014,10,23,08,24,9.70
2014,10,23,08,25,9.70
2014,10,23,08,26,9.80
2014,10,23,08,27,9.70
2014,10,23,08,28,9.80
2014,10,23,08,29,9.80
2014,10,23,08,30,9.80
2014,10,23,08,31,9.80
2014,10,23,08,32,9.80
